EN

Hourly Weather Otrocz

Today, 8 March, Monday

Time Temperature Precipitation Wind Pressure Humidity
00:00 -4°C° 0.1 mm 5 mps 734 mmHg 87%
01:00 -4°C° 0.1 mm 5 mps 734 mmHg 90%
02:00 -4°C° 0.1 mm 5 mps 734 mmHg 93%
03:00 -4°C° 0.2 mm 5 mps 734 mmHg 93%
04:00 -4°C° 0.2 mm 4 mps 734 mmHg 93%
05:00 -4°C° 0.2 mm 3 mps 734 mmHg 93%
06:00 -4°C° 0.1 mm 4 mps 734 mmHg 90%
07:00 -4°C° 0.1 mm 4 mps 734 mmHg 87%
08:00 -4°C° 0.1 mm 4 mps 735 mmHg 84%
09:00 -4°C° 0 mm 4 mps 735 mmHg 74%
10:00 -3°C° 0 mm 4 mps 736 mmHg 65%
11:00 -2°C° 0 mm 5 mps 736 mmHg 55%
12:00 -2°C° 0 mm 5 mps 736 mmHg 54%
13:00 -1°C° 0 mm 5 mps 736 mmHg 52%
14:00 -1°C° 0 mm 5 mps 737 mmHg 51%
15:00 -1°C° 0 mm 5 mps 737 mmHg 53%
16:00 -1°C° 0 mm 5 mps 737 mmHg 55%
17:00 -1°C° 0 mm 5 mps 737 mmHg 57%
18:00 -2°C° 0 mm 4 mps 737 mmHg 63%
19:00 -2°C° 0 mm 3 mps 738 mmHg 70%
20:00 -3°C° 0 mm 2 mps 738 mmHg 76%
21:00 -4°C° 0 mm 2 mps 738 mmHg 78%
22:00 -4°C° 0 mm 2 mps 738 mmHg 80%
23:00 -4°C° 0 mm 2 mps 739 mmHg 82%

Tomorrow, 9 March, Tuesday

Time Temperature Precipitation Wind Pressure Humidity
00:00 -4°C° 0 mm 2 mps 739 mmHg 82%
01:00 -5°C° 0 mm 2 mps 739 mmHg 83%
02:00 -5°C° 0 mm 2 mps 739 mmHg 83%
03:00 -5°C° 0 mm 2 mps 739 mmHg 83%
04:00 -5°C° 0 mm 2 mps 739 mmHg 83%
05:00 -5°C° 0 mm 2 mps 739 mmHg 84%
06:00 -5°C° 0 mm 2 mps 739 mmHg 82%
07:00 -5°C° 0 mm 2 mps 739 mmHg 80%
08:00 -5°C° 0 mm 2 mps 740 mmHg 78%
09:00 -4°C° 0 mm 2 mps 740 mmHg 70%
10:00 -1°C° 0 mm 1 mps 740 mmHg 63%
11:00 -1°C° 0 mm 1 mps 740 mmHg 56%
12:00 0°C° 0 mm 1 mps 740 mmHg 52%
13:00 0°C° 0 mm 1 mps 740 mmHg 49%
14:00 +1°C° 0 mm 1 mps 740 mmHg 45%
15:00 +1°C° 0 mm 1 mps 740 mmHg 45%
16:00 +1°C° 0 mm 1 mps 739 mmHg 46%
17:00 +1°C° 0 mm 1 mps 739 mmHg 46%
18:00 0°C° 0 mm 1 mps 739 mmHg 51%
19:00 -1°C° 0 mm 1 mps 739 mmHg 57%
20:00 -4°C° 0 mm 2 mps 739 mmHg 63%
21:00 -4°C° 0 mm 2 mps 739 mmHg 65%
22:00 -4°C° 0 mm 2 mps 739 mmHg 67%
23:00 -5°C° 0 mm 2 mps 740 mmHg 69%

Day after tomorrow, 10 March, Wednesday

Time Temperature Precipitation Wind Pressure Humidity
00:00 -3°C° 0 mm 1 mps 739 mmHg 69%
01:00 -3°C° 0 mm 1 mps 739 mmHg 70%
02:00 -3°C° 0 mm 1 mps 739 mmHg 70%
03:00 -3°C° 0 mm 1 mps 739 mmHg 70%
04:00 -3°C° 0 mm 1 mps 739 mmHg 70%
05:00 -4°C° 0 mm 0 mps 738 mmHg 70%
06:00 -4°C° 0 mm 0 mps 739 mmHg 69%
07:00 -3°C° 0 mm 0 mps 739 mmHg 68%
08:00 -2°C° 0 mm 1 mps 739 mmHg 66%
09:00 -1°C° 0 mm 1 mps 739 mmHg 59%
10:00 0°C° 0 mm 1 mps 739 mmHg 52%
11:00 +1°C° 0 mm 1 mps 739 mmHg 45%
12:00 +2°C° 0 mm 1 mps 739 mmHg 42%
13:00 +2°C° 0 mm 1 mps 739 mmHg 40%
14:00 +2°C° 0 mm 0 mps 739 mmHg 37%
15:00 +2°C° 0 mm 1 mps 739 mmHg 38%
16:00 +2°C° 0 mm 1 mps 739 mmHg 38%
17:00 +2°C° 0 mm 1 mps 738 mmHg 39%
18:00 +1°C° 0 mm 1 mps 739 mmHg 44%
19:00 0°C° 0 mm 1 mps 739 mmHg 48%
20:00 -1°C° 0 mm 1 mps 739 mmHg 53%
21:00 -2°C° 0 mm 1 mps 739 mmHg 54%
22:00 -2°C° 0 mm 1 mps 739 mmHg 56%
23:00 -4°C° 0 mm 2 mps 739 mmHg 58%

11 March, Thursday

Time Temperature Precipitation Wind Pressure Humidity
00:00 -4°C° 0 mm 2 mps 739 mmHg 60%
01:00 -4°C° 0 mm 2 mps 739 mmHg 63%
02:00 -4°C° 0 mm 2 mps 739 mmHg 65%
03:00 -4°C° 0 mm 2 mps 738 mmHg 64%
04:00 -4°C° 0 mm 2 mps 738 mmHg 63%
05:00 -4°C° 0 mm 2 mps 738 mmHg 62%
06:00 -5°C° 0 mm 3 mps 737 mmHg 62%
07:00 -4°C° 0 mm 4 mps 737 mmHg 62%
08:00 -4°C° 0 mm 4 mps 737 mmHg 62%
09:00 -2°C° 0 mm 5 mps 736 mmHg 59%
10:00 -1°C° 0 mm 5 mps 736 mmHg 55%
11:00 -1°C° 0 mm 6 mps 735 mmHg 52%
12:00 -1°C° 0 mm 6 mps 735 mmHg 62%
13:00 -1°C° 0 mm 6 mps 734 mmHg 71%
14:00 -1°C° 0 mm 6 mps 733 mmHg 81%
15:00 -1°C° 0.7 mm 7 mps 732 mmHg 86%
16:00 -2°C° 0.7 mm 7 mps 731 mmHg 91%
17:00 -2°C° 0.7 mm 7 mps 730 mmHg 96%
18:00 -1°C° 0.9 mm 7 mps 730 mmHg 93%
19:00 -1°C° 0.9 mm 7 mps 729 mmHg 90%
20:00 0°C° 0.9 mm 7 mps 729 mmHg 86%
21:00 0°C° 0.9 mm 7 mps 728 mmHg 87%
22:00 0°C° 0.9 mm 7 mps 728 mmHg 88%
23:00 0°C° 0.9 mm 7 mps 727 mmHg 90%

12 March, Friday

Time Temperature Precipitation Wind Pressure Humidity
00:00 0°C° 0.4 mm 7 mps 727 mmHg 89%
01:00 +1°C° 0.4 mm 6 mps 727 mmHg 88%
02:00 +2°C° 0.4 mm 6 mps 727 mmHg 87%
03:00 +2°C° 0.1 mm 6 mps 727 mmHg 88%
04:00 +2°C° 0.1 mm 6 mps 727 mmHg 89%
05:00 +2°C° 0.1 mm 6 mps 727 mmHg 90%
06:00 +2°C° 0 mm 5 mps 728 mmHg 90%
07:00 +2°C° 0 mm 5 mps 728 mmHg 90%
08:00 +2°C° 0 mm 5 mps 728 mmHg 90%
09:00 +3°C° 0.1 mm 7 mps 728 mmHg 82%
10:00 +4°C° 0.1 mm 8 mps 729 mmHg 73%
11:00 +5°C° 0.1 mm 9 mps 729 mmHg 65%
12:00 +5°C° 0.2 mm 9 mps 729 mmHg 65%
13:00 +5°C° 0.2 mm 9 mps 729 mmHg 65%
14:00 +5°C° 0.2 mm 10 mps 730 mmHg 65%
15:00 +5°C° 0.1 mm 9 mps 730 mmHg 66%
16:00 +4°C° 0.1 mm 8 mps 730 mmHg 67%
17:00 +4°C° 0.1 mm 7 mps 731 mmHg 67%
18:00 +3°C° 0 mm 6 mps 731 mmHg 70%
19:00 +2°C° 0 mm 5 mps 731 mmHg 72%
20:00 +1°C° 0 mm 5 mps 732 mmHg 75%
21:00 +1°C° 0 mm 5 mps 732 mmHg 77%
22:00 +1°C° 0 mm 4 mps 732 mmHg 79%
23:00 0°C° 0 mm 4 mps 733 mmHg 82%

13 March, Saturday

Time Temperature Precipitation Wind Pressure Humidity
00:00 0°C° 0 mm 4 mps 733 mmHg 83%
01:00 -1°C° 0 mm 4 mps 733 mmHg 84%
02:00 0°C° 0 mm 3 mps 733 mmHg 86%
03:00 0°C° 0 mm 3 mps 733 mmHg 86%
04:00 -2°C° 0 mm 4 mps 733 mmHg 87%
05:00 -2°C° 0 mm 4 mps 733 mmHg 87%
06:00 0°C° 0 mm 3 mps 733 mmHg 86%
07:00 0°C° 0 mm 3 mps 733 mmHg 84%
08:00 0°C° 0 mm 3 mps 733 mmHg 82%
09:00 +2°C° 0 mm 3 mps 733 mmHg 75%
10:00 +3°C° 0 mm 4 mps 733 mmHg 68%
11:00 +5°C° 0 mm 4 mps 733 mmHg 61%
12:00 +6°C° 0 mm 4 mps 733 mmHg 59%
13:00 +7°C° 0 mm 5 mps 732 mmHg 56%
14:00 +7°C° 0 mm 5 mps 732 mmHg 54%
15:00 +7°C° 0 mm 5 mps 732 mmHg 55%
16:00 +7°C° 0 mm 4 mps 731 mmHg 57%
17:00 +8°C° 0 mm 3 mps 731 mmHg 59%
18:00 +6°C° 0 mm 4 mps 731 mmHg 68%
19:00 +4°C° 0 mm 4 mps 731 mmHg 77%
20:00 +3°C° 0 mm 4 mps 731 mmHg 85%
21:00 +3°C° 0 mm 4 mps 731 mmHg 87%
22:00 +2°C° 0 mm 3 mps 731 mmHg 89%
23:00 +2°C° 0 mm 3 mps 731 mmHg 90%
Show more

We Need Your Consent

Meteoprog and our Service Providers may store and access personal data such as cookies, device identifiers or other similar technologies on your device and process such data to personalise content and ads, as well as provide social media features and to analyse the traffic.

  • Store and/or access information on your device

    Cookies, device identifiers or other information can be stored or accessed on your device for the purposes indicated above.

  • Personalised ads and content, ad and content measurement, audience insights, and products development

    Ads and content can be personalised based on a profile. More data can be added to better personalise ads and content. Ad and content performance can be measured. Insights about the audience who saw the ads and content can be derived. Such data can be used to develop or improve user’s experience, systems and software.

By clicking ‘I Agree’ you will allow the use of indicated cookies, device identifiers, web beacons or other similar technologies. Your settings can be changed in the browser on your device.

For certain purposes, legitimate interests may be relied on, rather than consent. You can read more about this in our Privacy and Cookie Policy.